{"data":{"norad_id":45386,"intl_designator":"2020-019AC","name":"STARLINK-1272","alt_names":[],"object_type":"PAYLOAD","status":"ACTIVE","operator":null,"country":"US","launch_date":"2020-03-18","launch_site_code":"AFETR","launch_vehicle":null,"mission":null,"orbit_class":"UNKNOWN","rcs_meters":null,"size_class":null,"mass_kg":null,"dimensions":null,"purposes":["comms"],"wikipedia_slug":null,"has_3d_model":false,"image_url":null,"decayed_at":null,"tle_current":{"epoch":"2026-05-25T03:25:30.042048Z","epoch_age_seconds":56599,"freshness":"FRESH","line1":"1 45386U 20019AC  26145.14270882  .00058970  00000+0  52469-3 0  9995","line2":"2 45386  53.0398  95.6293 0008510  49.6468 310.5289 15.67905164342484","mean_motion":15.67905164,"eccentricity":0.000851,"inclination_deg":53.0398,"raan_deg":95.6293,"arg_perigee_deg":49.6468,"mean_anomaly_deg":310.5289,"bstar":0.00052469,"rev_number":34248,"period_min":91.842289512352,"perigee_km":359.15813243671,"apogee_km":370.63477537526,"semimajor_km":6743.033453906,"source":"CELESTRAK","updated_at":"2026-05-25T13:38:16.416285Z"}}}